| time (UTC) | temp F | wind direction | speed MPH | gust MPH | rain 1hr in | rain 24hr in | rain mn in | humidity % | barometer mb |
| 20260903100504 | 77 | 0 | 0.0 | 0.0 | 0.00 | 0.24 | 0.00 | 90 | 1011.8 |
| 20260903100004 | 77 | 0 | 0.0 | 0.0 | 0.00 | 0.24 | 0.00 | 89 | 1011.7 |
| 20260903095504 | 77 | 58 | 0.0 | 1.0 | 0.00 | 0.24 | 0.00 | 89 | 1011.6 |
| 20260903095004 | 77 | 58 | 0.0 | 2.0 | 0.00 | 0.24 | 0.00 | 89 | 1011.6 |
| 20260903094503 | 77 | 58 | 0.0 | 2.0 | 0.00 | 0.24 | 0.00 | 89 | 1011.6 |
| 20260903094004 | 77 | 58 | 1.0 | 3.0 | 0.00 | 0.24 | 0.00 | 89 | 1011.4 |
| 20260903093503 | 77 | 58 | 1.0 | 3.0 | 0.00 | 0.24 | 0.00 | 89 | 1011.3 |
| 20260903093004 | 77 | 58 | 0.0 | 2.0 | 0.00 | 0.24 | 0.00 | 89 | 1011.2 |
| 20260903092503 | 77 | 0 | 0.0 | 0.0 | 0.00 | 0.24 | 0.00 | 89 | 1011.2 |
| 20260903092003 | 77 | 0 | 0.0 | 0.0 | 0.00 | 0.24 | 0.00 | 89 | 1011.2 |
| 20260903091503 | 77 | 0 | 0.0 | 0.0 | 0.00 | 0.24 | 0.00 | 89 | 1011.1 |
| 20260903091004 | 77 | 0 | 0.0 | 0.0 | 0.00 | 0.24 | 0.00 | 89 | 1011.1 |
| 20260903090503 | 77 | 0 | 0.0 | 0.0 | 0.00 | 0.24 | 0.00 | 89 | 1011.1 |
| 20260903090024 | 77 | 0 | 0.0 | 0.0 | 0.00 | 0.24 | 0.00 | 89 | 1011.1 |
| 20260903085504 | 77 | 0 | 0.0 | 0.0 | 0.00 | 0.24 | 0.00 | 89 | 1011.1 |
| 20260903085004 | 77 | 0 | 0.0 | 0.0 | 0.00 | 0.24 | 0.00 | 89 | 1011.1 |
| 20260903084503 | 77 | 0 | 0.0 | 0.0 | 0.00 | 0.24 | 0.00 | 89 | 1011.0 |
| 20260903084004 | 77 | 0 | 0.0 | 0.0 | 0.00 | 0.24 | 0.00 | 89 | 1011.1 |
| 20260903083526 | 77 | 0 | 0.0 | 0.0 | 0.00 | 0.24 | 0.00 | 89 | 1011.0 |
| 20260903083004 | 77 | 0 | 0.0 | 0.0 | 0.00 | 0.24 | 0.00 | 89 | 1011.1 |
| 20260903082525 | 77 | 0 | 0.0 | 0.0 | 0.00 | 0.24 | 0.00 | 89 | 1011.1 |
| 20260903082004 | 77 | 0 | 0.0 | 0.0 | 0.00 | 0.24 | 0.00 | 89 | 1011.1 |
| 20260903081504 | 77 | 0 | 0.0 | 0.0 | 0.00 | 0.24 | 0.00 | 89 | 1011.2 |
| 20260903081003 | 77 | 0 | 0.0 | 0.0 | 0.00 | 0.24 | 0.00 | 89 | 1011.2 |
| 20260903080525 | 77 | 0 | 0.0 | 0.0 | 0.00 | 0.24 | 0.00 | 89 | 1011.2 |
| 20260903080004 | 77 | 57 | 1.0 | 3.0 | 0.00 | 0.24 | 0.00 | 89 | 1011.2 |
| 20260903075524 | 77 | 55 | 1.0 | 3.0 | 0.00 | 0.24 | 0.00 | 89 | 1011.2 |
| 20260903075005 | 77 | 53 | 0.0 | 2.0 | 0.00 | 0.24 | 0.00 | 89 | 1011.4 |
| 20260903074504 | 77 | 0 | 0.0 | 0.0 | 0.00 | 0.24 | 0.00 | 89 | 1011.4 |
| 20260903074004 | 77 | 0 | 0.0 | 0.0 | 0.00 | 0.24 | 0.00 | 89 | 1011.4 |
| 20260903073503 | 78 | 0 | 0.0 | 0.0 | 0.00 | 0.24 | 0.00 | 89 | 1011.3 |
| 20260903073004 | 78 | 0 | 0.0 | 0.0 | 0.00 | 0.24 | 0.00 | 89 | 1011.3 |
| 20260903072525 | 78 | 0 | 0.0 | 0.0 | 0.00 | 0.24 | 0.00 | 89 | 1011.2 |
| 20260903072004 | 78 | 81 | 0.0 | 3.0 | 0.00 | 0.24 | 0.00 | 89 | 1011.2 |
| 20260903071504 | 78 | 81 | 0.0 | 3.0 | 0.00 | 0.24 | 0.00 | 89 | 1011.2 |
| 20260903071005 | 78 | 81 | 0.0 | 2.0 | 0.00 | 0.24 | 0.00 | 89 | 1011.2 |
| 20260903070504 | 78 | 0 | 0.0 | 0.0 | 0.00 | 0.24 | 0.00 | 89 | 1011.2 |
| 20260903070024 | 78 | 0 | 0.0 | 0.0 | 0.00 | 0.24 | 0.00 | 89 | 1011.2 |
| 20260903065525 | 78 | 0 | 0.0 | 0.0 | 0.00 | 0.24 | 0.00 | 89 | 1011.2 |
| 20260903065004 | 78 | 124 | 0.0 | 1.0 | 0.00 | 0.24 | 0.00 | 89 | 1011.2 |
| 20260903064524 | 78 | 124 | 0.0 | 1.0 | 0.00 | 0.24 | 0.00 | 89 | 1011.3 |
| 20260903064004 | 78 | 124 | 0.0 | 1.0 | 0.00 | 0.24 | 0.00 | 89 | 1011.4 |
| 20260903063504 | 78 | 0 | 0.0 | 0.0 | 0.00 | 0.24 | 0.00 | 89 | 1011.5 |
| 20260903063025 | 78 | 0 | 0.0 | 0.0 | 0.00 | 0.24 | 0.00 | 89 | 1011.6 |
| 20260903062504 | 78 | 0 | 0.0 | 0.0 | 0.00 | 0.24 | 0.00 | 89 | 1011.6 |
| 20260903062004 | 78 | 0 | 0.0 | 0.0 | 0.00 | 0.24 | 0.00 | 88 | 1011.7 |
| 20260903061504 | 78 | 0 | 0.0 | 0.0 | 0.00 | 0.24 | 0.00 | 89 | 1011.8 |
| 20260903061004 | 78 | 0 | 0.0 | 0.0 | 0.00 | 0.24 | 0.00 | 88 | 1012.0 |
| 20260903060504 | 78 | 0 | 0.0 | 0.0 | 0.00 | 0.24 | 0.00 | 88 | 1012.0 |
| 20260903060003 | 78 | 0 | 0.0 | 0.0 | 0.00 | 0.24 | 0.00 | 88 | 1012.1 |
| 20260903055503 | 77 | 0 | 0.0 | 0.0 | 0.00 | 0.24 | 0.00 | 88 | 1012.2 |
| 20260903055004 | 77 | 0 | 0.0 | 0.0 | 0.00 | 0.24 | 0.00 | 88 | 1012.3 |
| 20260903054525 | 77 | 0 | 0.0 | 0.0 | 0.00 | 0.24 | 0.00 | 88 | 1012.3 |
| 20260903054026 | 77 | 0 | 0.0 | 0.0 | 0.00 | 0.24 | 0.00 | 88 | 1012.3 |
| 20260903053503 | 77 | 0 | 0.0 | 0.0 | 0.00 | 0.24 | 0.00 | 88 | 1012.5 |
| 20260903053004 | 77 | 0 | 0.0 | 0.0 | 0.00 | 0.24 | 0.00 | 88 | 1012.4 |
| 20260903052503 | 77 | 0 | 0.0 | 0.0 | 0.00 | 0.24 | 0.00 | 88 | 1012.5 |
| 20260903052025 | 77 | 64 | 0.0 | 3.0 | 0.00 | 0.24 | 0.00 | 88 | 1012.4 |
| 20260903051504 | 77 | 64 | 0.0 | 3.0 | 0.00 | 0.24 | 0.00 | 88 | 1012.4 |
| 20260903051004 | 78 | 0 | 0.0 | 0.0 | 0.00 | 0.24 | 0.00 | 88 | 1012.4 |
| 20260903050503 | 77 | 0 | 0.0 | 0.0 | 0.00 | 0.24 | 0.00 | 88 | 1012.6 |
| 20260903050004 | 78 | 0 | 0.0 | 0.0 | 0.00 | 0.24 | 0.00 | 88 | 1012.6 |
| 20260903045504 | 78 | 105 | 1.0 | 3.0 | 0.00 | 0.24 | 0.00 | 88 | 1012.7 |
| 20260903045004 | 78 | 102 | 1.0 | 3.0 | 0.00 | 0.24 | 0.00 | 88 | 1012.7 |
| 20260903044503 | 78 | 99 | 1.0 | 3.0 | 0.00 | 0.24 | 0.00 | 88 | 1012.7 |
| 20260903044004 | 78 | 91 | 1.0 | 3.0 | 0.00 | 0.24 | 0.00 | 88 | 1012.7 |
| 20260903043503 | 78 | 89 | 1.0 | 3.0 | 0.00 | 0.24 | 0.00 | 88 | 1012.7 |
| 20260903043004 | 78 | 89 | 1.0 | 3.0 | 0.00 | 0.24 | 0.00 | 88 | 1012.7 |
| 20260903042503 | 78 | 92 | 1.0 | 3.0 | 0.00 | 0.24 | 0.00 | 88 | 1012.7 |
| 20260903042004 | 78 | 81 | 1.0 | 3.0 | 0.00 | 0.24 | 0.00 | 88 | 1012.8 |
| 20260903041503 | 78 | 80 | 1.0 | 4.0 | 0.00 | 0.24 | 0.00 | 88 | 1012.9 |
| 20260903041003 | 78 | 92 | 1.0 | 4.0 | 0.00 | 0.24 | 0.00 | 88 | 1012.8 |
| 20260903040503 | 78 | 80 | 1.0 | 4.0 | 0.00 | 0.24 | 0.00 | 88 | 1012.9 |
| 20260903040004 | 78 | 71 | 2.0 | 5.0 | 0.00 | 0.24 | 0.00 | 88 | 1013.0 |
| 20260903035504 | 78 | 65 | 2.0 | 5.0 | 0.00 | 0.24 | 0.24 | 87 | 1013.0 |
| 20260903035003 | 78 | 60 | 3.0 | 5.0 | 0.00 | 0.24 | 0.24 | 87 | 1013.1 |
| 20260903034525 | 78 | 56 | 3.0 | 5.0 | 0.00 | 0.24 | 0.24 | 87 | 1013.2 |
| 20260903034003 | 78 | 57 | 2.0 | 5.0 | 0.00 | 0.24 | 0.24 | 87 | 1013.2 |
| 20260903033505 | 78 | 53 | 2.0 | 4.0 | 0.00 | 0.24 | 0.24 | 87 | 1013.2 |
| 20260903033004 | 78 | 49 | 1.0 | 4.0 | 0.00 | 0.24 | 0.24 | 87 | 1013.2 |
| 20260903032504 | 78 | 49 | 1.0 | 4.0 | 0.00 | 0.24 | 0.24 | 87 | 1013.3 |
| 20260903032025 | 78 | 48 | 1.0 | 4.0 | 0.00 | 0.24 | 0.24 | 87 | 1013.3 |
| 20260903031504 | 78 | 48 | 1.0 | 6.0 | 0.00 | 0.24 | 0.24 | 87 | 1013.2 |
| 20260903031004 | 78 | 50 | 1.0 | 6.0 | 0.00 | 0.24 | 0.24 | 87 | 1013.2 |
| 20260903030503 | 78 | 51 | 1.0 | 3.0 | 0.00 | 0.24 | 0.24 | 87 | 1013.2 |
| 20260903030025 | 78 | 54 | 1.0 | 4.0 | 0.00 | 0.24 | 0.24 | 87 | 1013.2 |
| 20260903025504 | 78 | 57 | 1.0 | 4.0 | 0.00 | 0.24 | 0.24 | 87 | 1013.2 |
| 20260903025003 | 78 | 60 | 0.0 | 3.0 | 0.00 | 0.24 | 0.24 | 87 | 1013.3 |
| 20260903024504 | 77 | 60 | 0.0 | 2.0 | 0.00 | 0.24 | 0.24 | 87 | 1013.4 |
| 20260903024025 | 77 | 60 | 0.0 | 2.0 | 0.00 | 0.24 | 0.24 | 87 | 1013.4 |
| 20260903023525 | 77 | 60 | 0.0 | 2.0 | 0.00 | 0.24 | 0.24 | 87 | 1013.3 |
| 20260903023004 | 77 | 60 | 0.0 | 2.0 | 0.00 | 0.24 | 0.24 | 86 | 1013.2 |
| 20260903022504 | 77 | 60 | 0.0 | 2.0 | 0.00 | 0.24 | 0.24 | 86 | 1013.2 |
| 20260903022003 | 77 | 60 | 0.0 | 2.0 | 0.00 | 0.24 | 0.24 | 86 | 1013.2 |
| 20260903021504 | 77 | 60 | 0.0 | 3.0 | 0.00 | 0.24 | 0.24 | 86 | 1013.2 |
| 20260903021003 | 77 | 60 | 0.0 | 3.0 | 0.00 | 0.24 | 0.24 | 86 | 1013.2 |
| 20260903020504 | 77 | 60 | 0.0 | 1.0 | 0.00 | 0.24 | 0.24 | 86 | 1013.4 |
| 20260903020004 | 77 | 0 | 0.0 | 0.0 | 0.00 | 0.24 | 0.24 | 86 | 1013.4 |
| 20260903015504 | 77 | 0 | 0.0 | 0.0 | 0.00 | 0.24 | 0.24 | 86 | 1013.3 |
| 20260903015003 | 77 | 0 | 0.0 | 0.0 | 0.00 | 0.24 | 0.24 | 86 | 1013.2 |
| 20260903014503 | 77 | 0 | 0.0 | 0.0 | 0.00 | 0.24 | 0.24 | 86 | 1013.2 |
| 20260903014003 | 77 | 0 | 0.0 | 0.0 | 0.00 | 0.24 | 0.24 | 86 | 1012.8 |
| 20260903013525 | 77 | 0 | 0.0 | 0.0 | 0.00 | 0.24 | 0.24 | 86 | 1012.8 |
| 20260903013003 | 77 | 0 | 0.0 | 0.0 | 0.00 | 0.24 | 0.24 | 85 | 1012.9 |
| 20260903012503 | 77 | 0 | 0.0 | 0.0 | 0.00 | 0.24 | 0.24 | 85 | 1012.9 |
| 20260903012004 | 77 | 60 | 0.0 | 1.0 | 0.00 | 0.24 | 0.24 | 85 | 1013.2 |
| 20260903011504 | 77 | 60 | 0.0 | 2.0 | 0.00 | 0.24 | 0.24 | 85 | 1013.1 |
| 20260903011004 | 77 | 60 | 0.0 | 2.0 | 0.00 | 0.24 | 0.24 | 85 | 1013.2 |
| 20260903010504 | 77 | 52 | 0.0 | 2.0 | 0.00 | 0.24 | 0.24 | 85 | 1013.2 |
| 20260903010004 | 77 | 52 | 0.0 | 3.0 | 0.00 | 0.24 | 0.24 | 85 | 1013.1 |
| 20260903005524 | 77 | 55 | 0.0 | 3.0 | 0.00 | 0.24 | 0.24 | 85 | 1013.1 |
| 20260903005004 | 77 | 72 | 0.0 | 2.0 | 0.00 | 0.24 | 0.24 | 85 | 1012.8 |
| 20260903004505 | 77 | 60 | 0.0 | 2.0 | 0.00 | 0.24 | 0.24 | 85 | 1012.8 |
| 20260903004003 | 77 | 302 | 1.0 | 3.0 | 0.00 | 0.24 | 0.24 | 84 | 1012.7 |
| 20260903003505 | 77 | 310 | 1.0 | 3.0 | 0.00 | 0.24 | 0.24 | 84 | 1012.3 |
| 20260903003004 | 78 | 328 | 0.0 | 3.0 | 0.00 | 0.24 | 0.24 | 84 | 1012.1 |
| 20260903002504 | 78 | 27 | 1.0 | 4.0 | 0.00 | 0.24 | 0.24 | 84 | 1012.1 |
| 20260903002024 | 78 | 66 | 1.0 | 5.0 | 0.00 | 0.24 | 0.24 | 84 | 1012.2 |
| 20260903001504 | 78 | 72 | 3.0 | 6.0 | 0.00 | 0.24 | 0.24 | 84 | 1012.6 |
| 20260903001003 | 78 | 69 | 3.0 | 7.0 | 0.00 | 0.24 | 0.24 | 83 | 1012.6 |
| 20260903000503 | 78 | 64 | 3.0 | 7.0 | 0.00 | 0.24 | 0.24 | 83 | 1012.4 |
| 20260903000004 | 78 | 61 | 3.0 | 8.0 | 0.00 | 0.24 | 0.24 | 83 | 1012.2 |
| 20260902235504 | 78 | 59 | 4.0 | 9.0 | 0.00 | 0.24 | 0.24 | 83 | 1012.2 |
| 20260902235003 | 78 | 55 | 3.0 | 9.0 | 0.00 | 0.25 | 0.24 | 83 | 1012.4 |
| 20260902234524 | 79 | 42 | 3.0 | 9.0 | 0.00 | 0.25 | 0.24 | 83 | 1012.4 |
| 20260902234003 | 79 | 36 | 3.0 | 9.0 | 0.00 | 0.25 | 0.24 | 82 | 1012.3 |
| 20260902233504 | 80 | 27 | 2.0 | 9.0 | 0.00 | 0.25 | 0.24 | 84 | 1012.6 |
| 20260902233003 | 81 | 345 | 2.0 | 10.0 | 0.00 | 0.26 | 0.24 | 84 | 1012.7 |
| 20260902232504 | 81 | 338 | 1.0 | 10.0 | 0.00 | 0.26 | 0.24 | 85 | 1012.4 |
| 20260902232003 | 82 | 359 | 0.0 | 4.0 | 0.00 | 0.27 | 0.24 | 85 | 1012.3 |
| 20260902231504 | 82 | 351 | 0.0 | 4.0 | 0.00 | 0.27 | 0.24 | 85 | 1012.3 |
| 20260902231004 | 82 | 320 | 0.0 | 3.0 | 0.00 | 0.28 | 0.24 | 85 | 1012.5 |
| 20260902230503 | 82 | 318 | 0.0 | 2.0 | 0.00 | 0.28 | 0.24 | 85 | 1012.6 |
| 20260902230004 | 83 | 317 | 1.0 | 6.0 | 0.00 | 0.29 | 0.24 | 85 | 1012.6 |
| 20260902225504 | 83 | 316 | 1.0 | 6.0 | 0.00 | 0.29 | 0.24 | 84 | 1012.4 |
| 20260902225003 | 84 | 302 | 2.0 | 5.0 | 0.01 | 0.30 | 0.24 | 85 | 1012.3 |
| 20260902224505 | 83 | 290 | 2.0 | 5.0 | 0.01 | 0.30 | 0.24 | 85 | 1012.1 |
| 20260902224024 | 84 | 283 | 1.0 | 5.0 | 0.02 | 0.30 | 0.24 | 85 | 1012.0 |
| 20260902223505 | 84 | 174 | 1.0 | 3.0 | 0.05 | 0.30 | 0.24 | 86 | 1011.9 |
| 20260902223003 | 84 | 166 | 1.0 | 4.0 | 0.14 | 0.30 | 0.24 | 85 | 1011.8 |
| 20260902222505 | 84 | 159 | 1.0 | 4.0 | 0.23 | 0.31 | 0.24 | 85 | 1011.8 |
| 20260902222004 | 84 | 146 | 1.0 | 3.0 | 0.23 | 0.31 | 0.24 | 86 | 1011.9 |
| 20260902221504 | 84 | 147 | 2.0 | 5.0 | 0.23 | 0.32 | 0.24 | 85 | 1011.9 |
| 20260902221025 | 84 | 155 | 2.0 | 5.0 | 0.23 | 0.33 | 0.24 | 85 | 1012.0 |
| 20260902220503 | 84 | 162 | 1.0 | 4.0 | 0.23 | 0.33 | 0.24 | 85 | 1012.1 |
| 20260902220005 | 84 | 218 | 1.0 | 3.0 | 0.23 | 0.34 | 0.24 | 86 | 1012.1 |
| 20260902215526 | 82 | 286 | 1.0 | 3.0 | 0.23 | 0.35 | 0.24 | 84 | 1012.0 |
| 20260902215025 | 82 | 312 | 1.0 | 3.0 | 0.22 | 0.35 | 0.23 | 84 | 1011.9 |
| 20260902214504 | 83 | 314 | 2.0 | 4.0 | 0.22 | 0.36 | 0.23 | 82 | 1012.0 |
| 20260902214025 | 83 | 318 | 2.0 | 4.0 | 0.21 | 0.35 | 0.22 | 81 | 1011.9 |
| 20260902213524 | 84 | 32 | 1.0 | 6.0 | 0.18 | 0.33 | 0.20 | 79 | 1011.8 |
| 20260902213004 | 85 | 67 | 4.0 | 11.0 | 0.09 | 0.24 | 0.10 | 78 | 1011.8 |
| 20260902212525 | 85 | 65 | 5.0 | 12.0 | 0.00 | 0.15 | 0.02 | 76 | 1011.8 |
| 20260902212003 | 86 | 55 | 4.0 | 12.0 | 0.00 | 0.15 | 0.01 | 70 | 1011.9 |
| 20260902211504 | 88 | 316 | 5.0 | 12.0 | 0.00 | 0.15 | 0.01 | 68 | 1012.0 |
| 20260902211025 | 89 | 293 | 7.0 | 13.0 | 0.00 | 0.15 | 0.01 | 69 | 1012.2 |
| 20260902210525 | 90 | 289 | 8.0 | 13.0 | 0.00 | 0.15 | 0.01 | 68 | 1011.9 |
| 20260902210005 | 89 | 286 | 8.0 | 14.0 | 0.00 | 0.15 | 0.01 | 69 | 1011.7 |
| 20260902205504 | 89 | 285 | 8.0 | 14.0 | 0.00 | 0.15 | 0.01 | 69 | 1011.7 |
| 20260902205003 | 90 | 288 | 8.0 | 12.0 | 0.00 | 0.15 | 0.01 | 69 | 1011.6 |
| 20260902204504 | 89 | 283 | 8.0 | 14.0 | 0.00 | 0.15 | 0.01 | 68 | 1011.6 |
| 20260902204004 | 89 | 281 | 7.0 | 14.0 | 0.00 | 0.15 | 0.01 | 67 | 1011.6 |
| 20260902203503 | 89 | 280 | 7.0 | 13.0 | 0.00 | 0.15 | 0.01 | 67 | 1011.6 |
| 20260902203025 | 89 | 276 | 6.0 | 13.0 | 0.00 | 0.15 | 0.01 | 69 | 1011.7 |
| 20260902202504 | 90 | 280 | 7.0 | 11.0 | 0.00 | 0.15 | 0.01 | 69 | 1011.7 |
| 20260902202004 | 89 | 281 | 7.0 | 12.0 | 0.00 | 0.15 | 0.01 | 70 | 1011.7 |
| 20260902201504 | 89 | 280 | 6.0 | 12.0 | 0.00 | 0.15 | 0.01 | 69 | 1011.7 |
| 20260902201004 | 89 | 279 | 7.0 | 13.0 | 0.00 | 0.15 | 0.01 | 69 | 1011.7 |
| 20260902200525 | 90 | 279 | 7.0 | 13.0 | 0.00 | 0.15 | 0.01 | 69 | 1011.8 |
| 20260902200004 | 89 | 280 | 8.0 | 13.0 | 0.00 | 0.15 | 0.01 | 70 | 1011.9 |
| 20260902195504 | 90 | 288 | 7.0 | 13.0 | 0.00 | 0.15 | 0.01 | 69 | 1012.0 |
| 20260902195003 | 89 | 286 | 7.0 | 12.0 | 0.00 | 0.15 | 0.01 | 69 | 1012.1 |
| 20260902194504 | 89 | 281 | 7.0 | 11.0 | 0.00 | 0.15 | 0.01 | 68 | 1012.2 |
| 20260902194003 | 89 | 278 | 6.0 | 12.0 | 0.00 | 0.15 | 0.01 | 70 | 1012.2 |
| 20260902193505 | 89 | 287 | 6.0 | 12.0 | 0.00 | 0.15 | 0.01 | 67 | 1012.3 |
| 20260902193003 | 90 | 286 | 6.0 | 12.0 | 0.00 | 0.15 | 0.01 | 68 | 1012.4 |
| 20260902192504 | 89 | 280 | 6.0 | 12.0 | 0.00 | 0.15 | 0.01 | 67 | 1012.5 |
| 20260902192004 | 90 | 283 | 5.0 | 10.0 | 0.00 | 0.15 | 0.01 | 68 | 1012.6 |
| 20260902191503 | 89 | 283 | 5.0 | 10.0 | 0.00 | 0.15 | 0.01 | 68 | 1012.6 |
| 20260902191003 | 89 | 279 | 5.0 | 10.0 | 0.00 | 0.15 | 0.01 | 69 | 1012.7 |
| 20260902190505 | 89 | 275 | 5.0 | 10.0 | 0.00 | 0.15 | 0.01 | 69 | 1012.7 |
| 20260902190004 | 88 | 280 | 5.0 | 9.0 | 0.00 | 0.15 | 0.01 | 70 | 1012.7 |
| 20260902185503 | 89 | 283 | 4.0 | 8.0 | 0.00 | 0.15 | 0.01 | 69 | 1012.8 |
| 20260902185025 | 89 | 285 | 5.0 | 10.0 | 0.00 | 0.15 | 0.01 | 70 | 1013.0 |
| 20260902184524 | 88 | 284 | 6.0 | 10.0 | 0.00 | 0.15 | 0.01 | 71 | 1013.1 |
| 20260902184003 | 88 | 281 | 5.0 | 10.0 | 0.00 | 0.15 | 0.01 | 72 | 1013.2 |
| 20260902183504 | 86 | 279 | 6.0 | 10.0 | 0.00 | 0.15 | 0.01 | 74 | 1013.2 |
| 20260902183004 | 86 | 276 | 7.0 | 11.0 | 0.00 | 0.15 | 0.01 | 75 | 1013.3 |
| 20260902182503 | 86 | 273 | 5.0 | 11.0 | 0.00 | 0.15 | 0.01 | 75 | 1013.3 |
| 20260902182004 | 86 | 275 | 4.0 | 8.0 | 0.00 | 0.15 | 0.01 | 75 | 1013.4 |
| 20260902181503 | 86 | 275 | 4.0 | 7.0 | 0.00 | 0.15 | 0.01 | 76 | 1013.5 |
| 20260902181025 | 86 | 271 | 5.0 | 9.0 | 0.00 | 0.15 | 0.01 | 76 | 1013.5 |
| 20260902180524 | 85 | 272 | 6.0 | 10.0 | 0.00 | 0.15 | 0.01 | 76 | 1013.6 |
| 20260902180025 | 85 | 270 | 6.0 | 10.0 | 0.00 | 0.15 | 0.01 | 75 | 1013.7 |
| 20260902175504 | 85 | 272 | 6.0 | 10.0 | 0.00 | 0.15 | 0.01 | 75 | 1013.7 |
| 20260902175024 | 85 | 273 | 5.0 | 10.0 | 0.00 | 0.15 | 0.01 | 75 | 1013.7 |
| 20260902174504 | 85 | 275 | 5.0 | 9.0 | 0.00 | 0.15 | 0.01 | 75 | 1013.7 |
| 20260902174025 | 85 | 278 | 5.0 | 9.0 | 0.00 | 0.15 | 0.01 | 75 | 1013.8 |
| 20260902173504 | 85 | 277 | 6.0 | 10.0 | 0.00 | 0.15 | 0.01 | 76 | 1013.7 |
| 20260902173004 | 84 | 277 | 6.0 | 10.0 | 0.00 | 0.15 | 0.01 | 76 | 1013.9 |
| 20260902172504 | 85 | 276 | 6.0 | 10.0 | 0.00 | 0.15 | 0.01 | 75 | 1014.0 |
| 20260902172004 | 85 | 282 | 6.0 | 11.0 | 0.00 | 0.15 | 0.01 | 74 | 1013.9 |
| 20260902171505 | 86 | 292 | 6.0 | 11.0 | 0.00 | 0.15 | 0.01 | 72 | 1014.0 |
| 20260902171003 | 87 | 292 | 6.0 | 14.0 | 0.00 | 0.15 | 0.01 | 73 | 1014.2 |
| 20260902170525 | 87 | 284 | 7.0 | 14.0 | 0.00 | 0.15 | 0.01 | 73 | 1014.2 |
| 20260902170025 | 86 | 283 | 6.0 | 12.0 | 0.00 | 0.15 | 0.01 | 73 | 1014.3 |
| 20260902165524 | 86 | 286 | 5.0 | 9.0 | 0.00 | 0.15 | 0.01 | 73 | 1014.4 |
| 20260902165003 | 87 | 286 | 3.0 | 7.0 | 0.00 | 0.15 | 0.01 | 72 | 1014.5 |
| 20260902164503 | 87 | 295 | 2.0 | 5.0 | 0.00 | 0.15 | 0.01 | 72 | 1014.5 |
| 20260902164024 | 87 | 311 | 2.0 | 4.0 | 0.00 | 0.15 | 0.01 | 72 | 1014.5 |
| 20260902163503 | 88 | 301 | 2.0 | 5.0 | 0.00 | 0.15 | 0.01 | 69 | 1014.6 |
| 20260902163003 | 88 | 294 | 2.0 | 5.0 | 0.00 | 0.15 | 0.01 | 66 | 1014.7 |
| 20260902162504 | 91 | 60 | 1.0 | 4.0 | 0.00 | 0.15 | 0.01 | 62 | 1014.5 |
| 20260902162004 | 93 | 49 | 1.0 | 4.0 | 0.00 | 0.15 | 0.01 | 60 | 1014.6 |
| 20260902161503 | 92 | 51 | 2.0 | 9.0 | 0.00 | 0.15 | 0.01 | 64 | 1014.6 |
| 20260902161003 | 92 | 67 | 2.0 | 9.0 | 0.00 | 0.15 | 0.01 | 62 | 1014.7 |
| 20260902160527 | 92 | 65 | 2.0 | 6.0 | 0.00 | 0.15 | 0.01 | 62 | 1014.8 |
| 20260902160005 | 92 | 58 | 2.0 | 6.0 | 0.00 | 0.15 | 0.01 | 64 | 1014.8 |
| 20260902155505 | 91 | 71 | 2.0 | 5.0 | 0.00 | 0.15 | 0.01 | 61 | 1014.8 |
| 20260902155004 | 92 | 77 | 2.0 | 6.0 | 0.00 | 0.15 | 0.01 | 63 | 1014.8 |
| 20260902154504 | 91 | 71 | 2.0 | 6.0 | 0.00 | 0.15 | 0.01 | 65 | 1014.8 |
| 20260902154004 | 91 | 80 | 2.0 | 6.0 | 0.00 | 0.15 | 0.01 | 65 | 1014.8 |
| 20260902153504 | 92 | 82 | 2.0 | 6.0 | 0.00 | 0.15 | 0.01 | 66 | 1014.8 |
| 20260902153024 | 91 | 78 | 3.0 | 10.0 | 0.00 | 0.15 | 0.01 | 67 | 1014.8 |
| 20260902152504 | 89 | 67 | 2.0 | 10.0 | 0.00 | 0.15 | 0.01 | 69 | 1014.8 |
| 20260902152004 | 87 | 62 | 2.0 | 5.0 | 0.00 | 0.15 | 0.01 | 72 | 1014.9 |
| 20260902151504 | 88 | 66 | 2.0 | 6.0 | 0.00 | 0.15 | 0.01 | 71 | 1015.0 |
| 20260902151004 | 88 | 62 | 1.0 | 6.0 | 0.00 | 0.15 | 0.01 | 71 | 1015.1 |
| 20260902150504 | 87 | 59 | 2.0 | 5.0 | 0.00 | 0.15 | 0.01 | 71 | 1015.2 |
| 20260902150025 | 88 | 64 | 2.0 | 5.0 | 0.00 | 0.15 | 0.01 | 67 | 1015.2 |
| 20260902145504 | 90 | 64 | 2.0 | 7.0 | 0.00 | 0.15 | 0.01 | 70 | 1015.1 |
| 20260902145024 | 89 | 65 | 3.0 | 7.0 | 0.00 | 0.15 | 0.01 | 70 | 1015.1 |
| 20260902144525 | 89 | 60 | 2.0 | 7.0 | 0.00 | 0.15 | 0.01 | 71 | 1015.0 |
| 20260902144005 | 88 | 50 | 2.0 | 7.0 | 0.00 | 0.15 | 0.01 | 73 | 1014.9 |
| 20260902143504 | 87 | 59 | 1.0 | 5.0 | 0.00 | 0.15 | 0.01 | 76 | 1014.8 |
| 20260902143003 | 85 | 72 | 2.0 | 5.0 | 0.00 | 0.15 | 0.01 | 77 | 1014.9 |
| 20260902142504 | 85 | 65 | 2.0 | 6.0 | 0.00 | 0.15 | 0.01 | 77 | 1014.8 |
| 20260902142004 | 85 | 54 | 1.0 | 6.0 | 0.00 | 0.15 | 0.01 | 76 | 1014.8 |
| 20260902141524 | 85 | 52 | 1.0 | 4.0 | 0.00 | 0.15 | 0.01 | 76 | 1014.8 |
| 20260902141004 | 86 | 52 | 1.0 | 4.0 | 0.00 | 0.15 | 0.01 | 75 | 1014.8 |
| 20260902140524 | 86 | 58 | 2.0 | 5.0 | 0.00 | 0.15 | 0.01 | 75 | 1014.8 |
| 20260902140004 | 86 | 62 | 2.0 | 5.0 | 0.00 | 0.15 | 0.01 | 75 | 1014.8 |
| 20260902135504 | 87 | 65 | 2.0 | 5.0 | 0.00 | 0.15 | 0.01 | 77 | 1014.8 |
| 20260902135004 | 85 | 66 | 2.0 | 5.0 | 0.00 | 0.15 | 0.01 | 79 | 1014.9 |
| 20260902134525 | 85 | 62 | 3.0 | 5.0 | 0.00 | 0.15 | 0.01 | 79 | 1014.9 |
| 20260902134003 | 84 | 61 | 3.0 | 7.0 | 0.00 | 0.15 | 0.01 | 79 | 1014.8 |
| 20260902133524 | 84 | 59 | 3.0 | 7.0 | 0.00 | 0.15 | 0.01 | 79 | 1014.8 |
| 20260902133004 | 84 | 61 | 2.0 | 7.0 | 0.00 | 0.15 | 0.01 | 80 | 1014.8 |
| 20260902132503 | 84 | 61 | 3.0 | 7.0 | 0.00 | 0.15 | 0.01 | 81 | 1014.8 |
| 20260902132004 | 83 | 63 | 3.0 | 7.0 | 0.00 | 0.15 | 0.01 | 82 | 1014.8 |
| 20260902131504 | 83 | 72 | 2.0 | 6.0 | 0.00 | 0.15 | 0.01 | 83 | 1014.8 |
| 20260902131004 | 82 | 70 | 2.0 | 6.0 | 0.00 | 0.15 | 0.01 | 84 | 1014.8 |
| 20260902130504 | 82 | 66 | 2.0 | 6.0 | 0.00 | 0.15 | 0.01 | 85 | 1014.8 |
| 20260902130003 | 82 | 61 | 1.0 | 4.0 | 0.00 | 0.15 | 0.01 | 86 | 1014.8 |
| 20260902125503 | 82 | 66 | 2.0 | 5.0 | 0.00 | 0.15 | 0.01 | 88 | 1014.8 |
| 20260902125003 | 81 | 64 | 3.0 | 6.0 | 0.00 | 0.15 | 0.01 | 88 | 1014.8 |
| 20260902124504 | 80 | 58 | 3.0 | 6.0 | 0.00 | 0.15 | 0.01 | 89 | 1014.8 |
| 20260902124004 | 80 | 60 | 3.0 | 5.0 | 0.00 | 0.15 | 0.01 | 89 | 1014.8 |
| 20260902123503 | 80 | 65 | 3.0 | 5.0 | 0.00 | 0.15 | 0.01 | 90 | 1014.8 |
| 20260902123025 | 79 | 69 | 2.0 | 4.0 | 0.00 | 0.15 | 0.01 | 90 | 1014.8 |
| 20260902122503 | 79 | 62 | 2.0 | 4.0 | 0.00 | 0.15 | 0.01 | 90 | 1014.7 |
| 20260902122003 | 79 | 57 | 2.0 | 4.0 | 0.01 | 0.15 | 0.01 | 91 | 1014.8 |
| 20260902121504 | 78 | 61 | 1.0 | 5.0 | 0.01 | 0.15 | 0.01 | 90 | 1014.8 |
| 20260902121004 | 78 | 49 | 1.0 | 5.0 | 0.01 | 0.15 | 0.01 | 91 | 1014.8 |
| 20260902120504 | 78 | 48 | 1.0 | 3.0 | 0.01 | 0.15 | 0.01 | 90 | 1014.7 |
| 20260902120004 | 77 | 50 | 1.0 | 3.0 | 0.01 | 0.15 | 0.01 | 90 | 1014.7 |
| 20260902115504 | 77 | 67 | 0.0 | 3.0 | 0.01 | 0.15 | 0.01 | 90 | 1014.6 |
| 20260902115025 | 77 | 0 | 0.0 | 0.0 | 0.01 | 0.15 | 0.01 | 90 | 1014.5 |
| 20260902114504 | 77 | 0 | 0.0 | 0.0 | 0.01 | 0.15 | 0.01 | 90 | 1014.4 |
| 20260902114025 | 77 | 0 | 0.0 | 0.0 | 0.01 | 0.15 | 0.01 | 90 | 1014.4 |
| 20260902113504 | 77 | 0 | 0.0 | 0.0 | 0.01 | 0.15 | 0.01 | 90 | 1014.4 |
| 20260902113003 | 76 | 0 | 0.0 | 0.0 | 0.01 | 0.15 | 0.01 | 90 | 1014.4 |
| 20260902112504 | 76 | 81 | 0.0 | 1.0 | 0.01 | 0.15 | 0.01 | 90 | 1014.4 |
| 20260902112004 | 76 | 81 | 0.0 | 1.0 | 0.00 | 0.14 | 0.00 | 90 | 1014.4 |
| 20260902111504 | 76 | 81 | 0.0 | 1.0 | 0.00 | 0.14 | 0.00 | 90 | 1014.5 |
| 20260902111003 | 76 | 0 | 0.0 | 0.0 | 0.00 | 0.14 | 0.00 | 90 | 1014.4 |
| 20260902110503 | 76 | 0 | 0.0 | 0.0 | 0.00 | 0.14 | 0.00 | 90 | 1014.4 |
| 20260902110005 | 76 | 0 | 0.0 | 0.0 | 0.00 | 0.14 | 0.00 | 90 | 1014.4 |
| 20260902105504 | 76 | 81 | 0.0 | 1.0 | 0.00 | 0.14 | 0.00 | 90 | 1014.3 |
| 20260902105004 | 76 | 81 | 0.0 | 1.0 | 0.00 | 0.14 | 0.00 | 90 | 1014.3 |
| 20260902104504 | 76 | 81 | 0.0 | 1.0 | 0.00 | 0.14 | 0.00 | 90 | 1014.2 |
| 20260902104024 | 77 | 81 | 0.0 | 1.0 | 0.00 | 0.14 | 0.00 | 90 | 1014.2 |
| 20260902103504 | 77 | 0 | 0.0 | 0.0 | 0.00 | 0.14 | 0.00 | 90 | 1014.3 |
| 20260902103003 | 77 | 0 | 0.0 | 0.0 | 0.00 | 0.14 | 0.00 | 90 | 1014.2 |
| 20260902102524 | 77 | 0 | 0.0 | 0.0 | 0.00 | 0.14 | 0.00 | 90 | 1014.1 |
| 20260902102004 | 77 | 0 | 0.0 | 0.0 | 0.00 | 0.14 | 0.00 | 90 | 1014.1 |
| 20260902101503 | 77 | 0 | 0.0 | 0.0 | 0.00 | 0.14 | 0.00 | 90 | 1014.1 |
| 20260902101003 | 77 | 0 | 0.0 | 0.0 | 0.00 | 0.14 | 0.00 | 90 | 1014.0 |